Location: Bucquoy
(50.1391°N, 2.7097°E)
Time: 12:05:36
(UTC+00:00)

Lacrosse 5 - Pass Details

Date: 06 May 2021
Orbit: 715 x 724 km, 57.0° (Epoch: 15 June)

Event Time Altitude Azimuth Distance (km) Brightness Sun altitude
Exits shadow 03:24:15 10° 229° (SW) 2,218 3.7 -7.9°
Reaches altitude 10° 03:24:19 10° 229° (SW) 2,195 3.7 -7.8°
Maximum altitude 03:29:22 79° 145° (SE) 737 2.0 -7.2°
Drops below altitude 10° 03:34:27 10° 58° (ENE) 2,211 6.2 -6.5°
Sets 03:36:51 0° 58° (ENE) 3,136 8.0 -6.2°
